Torna al catalogo

KUIPER-00197

AttivoComunicazioniLEO
NORAD 67769·PAYLOAD·🇺🇸 United States

Lanciato Feb 12, 2026 da Guiana Space Centre

Loading…

Prossimi Passaggi (prossime 24 ore)

TLE

AggiornatoSource: CelesTrak SupGP

Epoca: Sep 14, 2026, 22:32 UTC

1 67769C 26030F   26257.93940972  .00006978  00000+0  91340-3 0  2577
2 67769  51.8986  71.2553 0000796 115.6272 108.2903 14.79925024    10

Traccia KUIPER-00197 in tempo reale con AllMySat

Download on the App Store